| time (UTC) | temp F | wind direction | speed knots | gust knots | rain 1hr in | rain 24hr in | rain mn in | humidity % | barometer mb |
| 20260503210059 | 62 | 104 | 4.3 | 13.0 | 0.00 | 0.00 | 0.00 | 64 | 1012.6 |
| 20260503204559 | 63 | 112 | 5.2 | 12.2 | 0.00 | 0.00 | 0.00 | 63 | 1012.8 |
| 20260503203102 | 61 | 84 | 3.5 | 8.7 | 0.00 | 0.00 | 0.00 | 67 | 1012.9 |
| 20260503201559 | 60 | 294 | 4.3 | 10.4 | 0.00 | 0.00 | 0.00 | 68 | 1013.1 |
| 20260503200057 | 62 | 284 | 3.5 | 7.8 | 0.00 | 0.00 | 0.00 | 66 | 1013.0 |
| 20260503194624 | 60 | 195 | 2.6 | 5.2 | 0.00 | 0.00 | 0.00 | 66 | 1013.0 |
| 20260503193056 | 61 | 208 | 1.7 | 7.8 | 0.00 | 0.00 | 0.00 | 66 | 1012.9 |
| 20260503191612 | 61 | 263 | 2.6 | 7.0 | 0.00 | 0.00 | 0.00 | 65 | 1013.1 |
| 20260503190058 | 62 | 246 | 1.7 | 7.8 | 0.00 | 0.00 | 0.00 | 64 | 1013.1 |
| 20260503184559 | 62 | 318 | 1.7 | 6.1 | 0.00 | 0.00 | 0.00 | 64 | 1013.1 |
| 20260503183105 | 60 | 131 | 2.6 | 6.1 | 0.00 | 0.00 | 0.00 | 66 | 1013.1 |
| 20260503181607 | 60 | 169 | 1.7 | 9.6 | 0.00 | 0.00 | 0.00 | 64 | 1013.1 |
| 20260503180058 | 61 | 238 | 1.7 | 5.2 | 0.00 | 0.00 | 0.00 | 68 | 1013.0 |
| 20260503174613 | 58 | 262 | 1.7 | 4.3 | 0.00 | 0.00 | 0.00 | 71 | 1013.0 |
| 20260503173105 | 57 | 280 | 1.7 | 7.8 | 0.00 | 0.00 | 0.00 | 74 | 1012.9 |
| 20260503171557 | 57 | 285 | 0.9 | 7.0 | 0.00 | 0.00 | 0.00 | 78 | 1013.0 |
| 20260503170112 | 57 | 309 | 0.0 | 2.6 | 0.00 | 0.00 | 0.00 | 81 | 1013.2 |
| 20260503120112 | 53 | 295 | 0.0 | 0.0 | 0.00 | 0.00 | 0.00 | 88 | 1011.0 |
| 20260503081555 | 53 | 0 | 0.0 | 0.9 | 0.00 | 0.00 | 0.00 | 85 | 1011.8 |
| 20260503071557 | 53 | 315 | 0.0 | 2.6 | 0.00 | 0.00 | 0.00 | 86 | 1012.1 |
| 20260503054600 | 53 | 251 | 2.6 | 7.0 | 0.00 | 0.00 | 0.00 | 85 | 1012.3 |
| 20260503053057 | 53 | 284 | 2.6 | 7.0 | 0.00 | 0.00 | 0.00 | 85 | 1012.3 |
| 20260503051559 | 53 | 249 | 4.3 | 8.7 | 0.00 | 0.00 | 0.00 | 84 | 1012.3 |
| 20260503050058 | 53 | 262 | 5.2 | 9.6 | 0.00 | 0.00 | 0.00 | 83 | 1012.5 |
| 20260503044619 | 53 | 252 | 3.5 | 8.7 | 0.00 | 0.00 | 0.00 | 85 | 1012.3 |
| 20260503043109 | 53 | 231 | 2.6 | 8.7 | 0.00 | 0.00 | 0.00 | 86 | 1012.3 |
| 20260503041615 | 53 | 238 | 3.5 | 8.7 | 0.00 | 0.00 | 0.00 | 85 | 1012.3 |
| 20260503034604 | 53 | 245 | 5.2 | 9.6 | 0.00 | 0.00 | 0.00 | 83 | 1012.0 |
| 20260503033116 | 53 | 233 | 5.2 | 10.4 | 0.00 | 0.00 | 0.00 | 83 | 1011.9 |
| 20260503031600 | 53 | 278 | 4.3 | 9.6 | 0.00 | 0.00 | 0.00 | 84 | 1011.8 |
| 20260503030107 | 53 | 278 | 4.3 | 8.7 | 0.00 | 0.00 | 0.00 | 83 | 1011.4 |
| 20260503024604 | 53 | 242 | 4.3 | 12.2 | 0.00 | 0.00 | 0.00 | 83 | 1011.2 |
| 20260503023058 | 54 | 243 | 5.2 | 11.3 | 0.00 | 0.00 | 0.00 | 82 | 1011.2 |
| 20260503021609 | 54 | 293 | 4.3 | 9.6 | 0.00 | 0.00 | 0.00 | 81 | 1011.2 |
| 20260503020109 | 55 | 250 | 5.2 | 10.4 | 0.00 | 0.00 | 0.00 | 79 | 1011.2 |
| 20260503014557 | 55 | 208 | 3.5 | 8.7 | 0.00 | 0.00 | 0.00 | 78 | 1011.3 |
| 20260503013103 | 56 | 302 | 3.5 | 9.6 | 0.00 | 0.00 | 0.00 | 78 | 1011.3 |
| 20260503011607 | 57 | 263 | 3.5 | 7.8 | 0.00 | 0.00 | 0.00 | 76 | 1011.4 |
| 20260503004601 | 57 | 270 | 4.3 | 10.4 | 0.00 | 0.00 | 0.00 | 76 | 1011.3 |
| 20260503003106 | 57 | 219 | 5.2 | 9.6 | 0.00 | 0.00 | 0.00 | 77 | 1011.5 |
| 20260503001604 | 58 | 293 | 5.2 | 13.0 | 0.00 | 0.00 | 0.00 | 76 | 1011.4 |
| 20260503000055 | 60 | 281 | 4.3 | 7.8 | 0.00 | 0.00 | 0.00 | 73 | 1011.5 |
| 20260502234557 | 60 | 208 | 3.5 | 7.8 | 0.00 | 0.00 | 0.00 | 74 | 1011.3 |
| 20260502233057 | 60 | 235 | 3.5 | 8.7 | 0.00 | 0.00 | 0.00 | 73 | 1011.5 |
| 20260502231559 | 60 | 250 | 3.5 | 7.8 | 0.00 | 0.00 | 0.00 | 73 | 1011.6 |
| 20260502230057 | 60 | 313 | 3.5 | 7.8 | 0.00 | 0.00 | 0.00 | 73 | 1011.9 |
| 20260502224559 | 60 | 231 | 4.3 | 9.6 | 0.00 | 0.00 | 0.00 | 73 | 1012.2 |
| 20260502223055 | 60 | 195 | 3.5 | 6.1 | 0.00 | 0.00 | 0.00 | 73 | 1012.3 |
| 20260502221556 | 61 | 205 | 4.3 | 7.0 | 0.00 | 0.00 | 0.00 | 70 | 1012.5 |
| 20260502220143 | 61 | 217 | 4.3 | 7.0 | 0.00 | 0.00 | 0.00 | 72 | 1012.8 |
| 20260502214557 | 61 | 228 | 3.5 | 7.0 | 0.00 | 0.00 | 0.00 | 71 | 1012.8 |
| 20260502213103 | 61 | 181 | 4.3 | 7.0 | 0.00 | 0.00 | 0.00 | 71 | 1012.9 |
| 20260502211556 | 61 | 271 | 3.5 | 7.8 | 0.00 | 0.00 | 0.00 | 70 | 1013.0 |